ELEKTRON 1 DEB, 750

Orbit data source: Space-Track

ELEKTRON 1 DEB, 750 is space debris in LEO originally from a launch on Thu, 30 Jan 1964 UTC launched from the Tyuratam Missile And Space Complex (TTMTR). Debris objects in space refer to the collection of defunct objects orbiting the Earth. Examples of debris include non-operational satellites, rocket bodies, and fragments generated from explosions, collisions, or faulty payload assembly.

Loading next visibility...
Identifier
750, 1964-006C
Orbit
LEO
Last TLE update
14 hours ago
Origin
Manufacturer
OKB-1
Mission
Spacecraft
Bus & Motor
ADAPTER, Unknown motor
Mass
Unknown
Launch date (UTC)
1964-01-30 (61 years ago)
Launch vehicle
Unknown
Launch site
Tyuratam Missile And Space Complex (TTMTR)
Object type
Payload
Rocket body
Debris
Shape & HBR
Unknown
Radar Cross Section
Medium (>0.1 m² and <1 m²)

Expand to show TLE details & history

TLE from 14 hours ago
0 ELEKTRON 1 DEB
1 00750U 64006C   25128.63172008  .00020430  00000-0  22922-2 0  9991
2 00750  60.7628 244.3735 1435318 230.4348 116.0990 12.36519362796365
Epoch: 2025-05-08T15:09Z
Definitive object data (Epoch: 2025-05-08T15:09:40.614Z)
Latitude
0.00003°
Longitude
150.25486°
Altitude
2,140.292 km
Speed
6.57 km/s
True Right ascension
16h 17m 29s
True Declination
0° 00' 00"
Sunlit
Object was in full shadow at TLE epoch
Visualization TLE readout
Latitude
21.35343°
Longitude
161.46664°
Altitude
2,504.813 km
Speed
6.271 km/s
Apparent Right ascension
19h 26m 37s
Apparent Declination
-6° 44' 54"
Sunlit
Object is in daylight
Visualization observer readout
Local Sidereal Time
13:03:05
Azimuth
91.439° ESE
Elevation
-8.828°
Doppler factor
1
Orbital elements
Apogee altitude
2,654.297 km
Perigee altitude
386.863 km
Semi-major axis
7,898.717 km
Eccentricity
0.1435318
Inclination
60.7628°
RAAN
244.3735°
Arg. of periapsis
230.4348°
True anomaly
129.65993°
Mean anomaly
116.099°
Eccentric anomaly
122.99632°
Mean motion
3.09178 °/min
BSTAR
0.0022922
Orbital period
116.44 mins
Loading maneuver chart data...
Loading SW <> Apogee altitude chart data...

ELEKTRON 1 DEB Visibility forecast

Observer location: undefined°, undefined°

Span
Click to sort rows by Start time (UTC) header in descending order
Start Az.
Max El. time (UTC)
Max El. Az.
Max El.
End time (UTC)
End Az.
14 mins2025-05-09 06:48:30.946Z126.424° SE2025-05-09 06:55:30.946Z96.623° ESE15.856°2025-05-09 07:02:30.946Z68.468° E
26 mins2025-05-09 08:42:30.946Z188.304° SSW2025-05-09 08:54:30.946Z116.342° SE41.004°2025-05-09 09:08:30.946Z43.389° NE
27 mins2025-05-09 10:43:30.946Z240.357° WSW2025-05-09 10:56:30.946Z310.788° NW41.199°2025-05-09 11:10:30.946Z35.756° NE
23 mins2025-05-09 12:50:30.946Z286.616° WNW2025-05-09 13:02:30.946Z343.205° N28.893°2025-05-09 13:13:30.946Z42.381° NE
19 mins2025-05-09 14:58:30.946Z318.293° NNW2025-05-09 15:08:30.946Z7.408° NNE27.095°2025-05-09 15:17:30.946Z68.001° E
18 mins2025-05-09 17:02:30.946Z324.625° NNW2025-05-09 17:13:30.946Z36.39° NE40.322°2025-05-09 17:20:30.946Z116.538° SE
15 mins2025-05-09 19:05:30.946Z311.502° NW2025-05-09 19:14:30.946Z247.424° WSW32.377°2025-05-09 19:20:30.946Z184.862° SSW
|